Weather History for Crescent City, CA

Change the Weather History Date:

Sunday, May 10, 2009

  Actual Average Record
Temperature  
Mean Temperature 49 °F 52 °F  
Max Temperature 51 °F 57 °F 72 °F (1960)
Min Temperature 47 °F 47 °F 37 °F (1982)
Degree Days  
Heating Degree Days 16 13  
Month to date heating degree days 134 138  
Since 1 July heating degree days 4442 4295  
Cooling Degree Days 0 0  
Month to date cooling degree days 0 0  
Year to date cooling degree days 0 0  
Moisture  
Dew Point 46 °F    
Average Humidity 90    
Maximum Humidity 100    
Minimum Humidity 80    
Precipitation  
Precipitation 0.00 in 0.11 in 0.93 in (2010)
Month to date precipitation 2.61 1.15  
Year to date precipitation 23.73 33.48  
Since 1 July precipitation 47.98 60.58  
Snow  
Snow 0.00 in - - ()
Month to date snowfall 0.0  
Since 1 July snowfall 0.0  
Snow Depth 0.00 in    
Sea Level Pressure  
Sea Level Pressure 30.13 in    
Wind  
Wind Speed 4 mph (WSW)    
Max Wind Speed 14 mph    
Max Gust Speed -    
Visibility 10 miles    
Events      
T = Trace of Precipitation, MM = Missing Value Source: NWS Daily Summary

Daily Weather History Graph

Daily Weather History Graph

Search for Another Location

Airport:

Trip Planner

Search our weather history database for the weather conditions in past years. The results will help you decide how hot, cold, wet, or windy it might be!

Date:

Astronomy

May. 10, 2009 Rise Set
Actual Time 6:01 AM PDT 8:25 PM PDT
Civil Twilight 5:30 AM PDT 8:56 PM PDT
Nautical Twilight 4:51 AM PDT 9:35 PM PDT
Astronomical Twilight 4:08 AM PDT 10:19 PM PDT
Moon 10:35 PM PDT (5/10) 6:35 AM PDT (5/10)
Length of Visible Light 15h 26m
Length of Day
14h 23m
Full, 97% of the Moon is Illuminated
May 10
Full
May 17
Last Quarter
May 24
New
May 30
First Quarter
Jun 7
Full

Hourly Weather History & Observations

Time (PDT) Temp. Dew Point Humidity Pressure Visibility Wind Dir Wind Speed Gust Speed Precip Events Conditions
12:56 AM 48.0 °F 46.9 °F 96% 30.13 in 10.0 mi SSE 13.8 mph - N/A   Clear
2:11 AM 48.2 °F 46.4 °F 93% 30.13 in 10.0 mi SSE 9.2 mph - N/A   Mostly Cloudy
2:56 AM 48.0 °F 46.0 °F 93% 30.13 in 10.0 mi SSE 8.1 mph - N/A   Overcast
3:56 AM 48.0 °F 46.9 °F 96% 30.13 in 10.0 mi East 3.5 mph - N/A   Overcast
4:56 AM 48.0 °F 46.9 °F 96% 30.13 in 10.0 mi Calm Calm - N/A   Overcast
5:35 AM 48.2 °F 46.4 °F 93% 30.12 in 8.0 mi Calm Calm - N/A   Overcast
5:56 AM 46.9 °F 46.0 °F 97% 30.12 in 8.0 mi Calm Calm - N/A   Overcast
6:56 AM 48.0 °F 46.9 °F 96% 30.12 in 8.0 mi Calm Calm - N/A   Overcast
7:27 AM 48.2 °F 46.4 °F 93% 30.12 in 10.0 mi NE 3.5 mph - N/A   Overcast
7:56 AM 48.0 °F 46.0 °F 93% 30.13 in 10.0 mi Calm Calm - N/A   Overcast
8:56 AM 48.9 °F 46.0 °F 90% 30.15 in 10.0 mi WSW 3.5 mph - N/A   Overcast
9:37 AM 48.2 °F 46.4 °F 93% 30.15 in 10.0 mi Calm Calm - N/A   Overcast
9:56 AM 50.0 °F 46.0 °F 86% 30.15 in 10.0 mi WSW 3.5 mph - N/A   Overcast
10:16 AM 50.0 °F 46.4 °F 87% 30.14 in 10.0 mi WSW 4.6 mph - N/A   Overcast
10:25 AM 50.0 °F 46.4 °F 87% 30.13 in 10.0 mi West 4.6 mph - N/A   Overcast
10:56 AM 50.0 °F 46.9 °F 89% 30.14 in 10.0 mi WSW 8.1 mph - N/A   Overcast
11:10 AM 50.0 °F 46.4 °F 87% 30.14 in 10.0 mi WSW 10.4 mph - N/A   Overcast
11:40 AM 50.0 °F 46.4 °F 87% 30.14 in 10.0 mi SW 6.9 mph - N/A   Overcast
11:56 AM 50.0 °F 46.0 °F 86% 30.15 in 10.0 mi SW 6.9 mph - N/A   Overcast
12:56 PM 48.9 °F 46.0 °F 90% 30.15 in 10.0 mi WSW 9.2 mph - N/A   Overcast
1:56 PM 48.9 °F 46.0 °F 90% 30.16 in 10.0 mi SSW 4.6 mph - N/A   Overcast
2:56 PM 50.0 °F 46.9 °F 89% 30.15 in 10.0 mi West 5.8 mph - N/A   Overcast
3:56 PM 48.9 °F 46.0 °F 90% 30.14 in 10.0 mi WNW 4.6 mph - N/A   Overcast
4:56 PM 50.0 °F 46.0 °F 86% 30.13 in 10.0 mi Calm Calm - N/A   Overcast
5:20 PM 50.0 °F 46.4 °F 87% 30.13 in 10.0 mi WNW 4.6 mph - N/A   Scattered Clouds
5:56 PM 50.0 °F 45.0 °F 83% 30.14 in 10.0 mi WNW 5.8 mph - N/A   Clear
6:19 PM 48.2 °F 44.6 °F 87% 30.13 in 10.0 mi NW 5.8 mph - N/A   Partly Cloudy
6:34 PM 48.2 °F 44.6 °F 87% 30.13 in 10.0 mi WNW 6.9 mph - N/A   Mostly Cloudy
6:56 PM 48.9 °F 45.0 °F 86% 30.14 in 10.0 mi West 5.8 mph - N/A   Overcast
7:54 PM 48.2 °F 44.6 °F 87% 30.12 in 10.0 mi Calm Calm - N/A   Overcast
7:56 PM 48.9 °F 45.0 °F 86% 30.12 in 10.0 mi Calm Calm - N/A   Overcast
8:56 PM 48.9 °F 45.0 °F 86% 30.11 in 10.0 mi Calm Calm - N/A   Overcast
9:56 PM 48.9 °F 45.0 °F 86% 30.12 in 10.0 mi Calm Calm - N/A   Overcast
10:56 PM 48.9 °F 46.0 °F 90% 30.12 in 10.0 mi Calm Calm - N/A   Overcast
11:52 PM 48.2 °F 46.4 °F 93% 30.12 in 10.0 mi Calm Calm - N/A   Overcast
11:56 PM 48.9 °F 46.0 °F 90% 30.13 in 10.0 mi Calm Calm - N/A   Overcast